Flight Track Log - Related Links

Times and Time Zones

All times are in EDT time to prevent confusion due to time zone crossing. See the EJA820 flight status page for this flight to view local times or setup timezone preferences in your user account.


Time Position Orientation Groundspeed Altitude Reporting Facility
EDT Latitude Longitude Course Direction KTS MPH feet Rate Location/Type
Thu 12:08:14 PM 34.2989 -77.8419 175° South 208 239 2,100  Level Washington Center
Thu 12:09:14 PM 34.2450 -77.8128 156° South 230 265 4,200 2,300 Climbing Washington Center
Thu 12:10:14 PM 34.1786 -77.7986 170° South 268 308 6,700 2,650 Climbing Washington Center
Thu 12:11:14 PM 34.1094 -77.8167 192° South 268 308 9,500 2,550 Climbing Washington Center
Thu 12:12:14 PM 34.0442 -77.8475 201° Southwest 273 314 11,800 2,007 Climbing Washington Center
Thu 12:13:00 PM 33.5793 -77.9218 175° South  Level FlightAware Approximate
Thu 12:15:52 PM 33.7500 -77.9522 196° South 313 360 18,800  Level Jacksonville Center
Thu 12:16:52 PM 33.6536 -77.9375 173° South 308 354 20,800 1,800 Climbing Jacksonville Center
Thu 12:17:52 PM 33.5656 -77.9300 176° South 318 366 22,400 1,600 Climbing Jacksonville Center
Thu 12:18:52 PM 33.4717 -77.9253 178° South 329 379 24,000 1,400 Climbing Jacksonville Center
Thu 12:19:52 PM 33.3753 -77.9183 177° South 335 386 25,200 1,050 Climbing Jacksonville Center
Thu 12:20:52 PM 33.2750 -77.9114 177° South 354 407 26,100 950 Climbing Jacksonville Center
Thu 12:21:52 PM 33.1681 -77.9050 177° South 373 429 27,100 950 Climbing Jacksonville Center
Thu 12:22:52 PM 33.0594 -77.9011 178° South 386 444 28,000 1,000 Climbing Jacksonville Center
Thu 12:23:52 PM 32.9506 -77.8925 176° South 391 450 29,100 1,350 Climbing Jacksonville Center
Thu 12:24:52 PM 32.8419 -77.8886 178° South 391 450 30,700 1,350 Climbing Jacksonville Center
Thu 12:25:52 PM 32.7372 -77.8772 175° South 391 450 31,800 1,000 Climbing Jacksonville Center
Thu 12:26:52 PM 32.6264 -77.8733 178° South 386 444 32,700 850 Climbing Jacksonville Center
Thu 12:27:52 PM 32.5156 -77.8647 176° South 392 451 33,500 850 Climbing Jacksonville Center
Thu 12:28:52 PM 32.4003 -77.8564 177° South 402 463 34,400 900 Climbing Jacksonville Center
Thu 12:29:52 PM 32.2875 -77.8528 178° South 408 470 35,300 850 Climbing Jacksonville Center
Thu 12:30:52 PM 32.1725 -77.8444 176° South 408 470 36,100 700 Climbing Jacksonville Center
Thu 12:31:52 PM 32.0572 -77.8383 177° South 408 470 36,700 550 Climbing Jacksonville Center
Thu 12:32:52 PM 31.9400 -77.8253 175° South 413 475 37,200 550 Climbing Jacksonville Center
Thu 12:33:52 PM 31.8228 -77.8219 179° South 423 487 37,800 600 Climbing Jacksonville Center
Thu 12:34:52 PM 31.7017 -77.8164 178° South 428 493 38,400 600 Climbing Jacksonville Center
Thu 12:35:52 PM 31.5844 -77.8106 178° South 428 493 39,000 600 Climbing Jacksonville Center
Thu 12:36:52 PM 31.4653 -77.8050 178° South 428 493 39,600 500 Climbing Jacksonville Center
Thu 12:37:52 PM 31.3483 -77.8017 179° South 422 486 40,000 200 Climbing Jacksonville Center
Thu 12:38:52 PM 31.2269 -77.7961 178° South 422 486 40,000  Level Jacksonville Center
Thu 12:39:52 PM 31.1056 -77.7856 176° South 427 491 40,000  Level Jacksonville Center
Thu 12:40:51 PM 30.9819 -77.7731 175° South 439 505 40,000  Level Jacksonville Center
Thu 12:41:52 PM 30.8586 -77.7675 178° South 444 511 40,000  Level Jacksonville Center
Thu 12:42:52 PM 30.7331 -77.7622 178° South 449 517 40,000  Level Jacksonville Center
Thu 12:43:52 PM 30.6117 -77.7519 176° South 449 517 40,000  Level Jacksonville Center
Thu 12:44:52 PM 30.4861 -77.7442 177° South 449 517 40,000  Level Jacksonville Center
Thu 12:46:27 PM 30.3006 -77.7494 181° South 442 509 40,000  Level Miami Center
Thu 12:47:27 PM 30.1775 -77.7436 178° South 442 509 40,000  Level Miami Center
Thu 12:48:27 PM 30.0506 -77.7331 176° South 448 516 40,000  Level Miami Center
Thu 12:49:27 PM 29.9317 -77.7344 181° South 453 521 40,000  Level Miami Center
Thu 12:50:27 PM 29.8025 -77.7239 176° South 453 521 40,000  Level Miami Center
Thu 12:51:27 PM 29.6731 -77.7133 176° South 456 525 40,000  Level Miami Center
Thu 12:52:27 PM 29.5542 -77.7100 179° South 456 525 40,000  Level Miami Center
Thu 12:53:27 PM 29.4250 -77.7042 178° South 451 519 40,000  Level Miami Center
Thu 12:54:27 PM 29.2872 -77.6936 176° South 458 527 40,000  Level Miami Center
Thu 12:55:27 PM 29.1664 -77.6903 179° South 458 527 40,000  Level Miami Center
Thu 12:56:27 PM 29.0392 -77.6822 177° South 459 528 40,000 -150 Level Miami Center
Thu 12:57:27 PM 28.9097 -77.6767 178° South 459 528 39,700 -1,150 Descending Miami Center
Thu 12:58:27 PM 28.7889 -77.6711 178° South 459 528 37,700 -2,000 Descending Miami Center
Thu 12:59:27 PM 28.6656 -77.6653 178° South 446 513 35,700 -1,950 Descending Miami Center
Thu 01:00:27 PM 28.5383 -77.6597 178° South 441 507 33,800 -2,000 Descending Miami Center
Thu 01:01:27 PM 28.4217 -77.6519 177° South 440 506 31,700 -2,000 Descending Miami Center
Thu 01:02:27 PM 28.2964 -77.6439 177° South 440 506 29,800 -1,900 Descending Miami Center
Thu 01:03:27 PM 28.1731 -77.6383 178° South 448 516 27,900 -1,850 Descending Miami Center
Thu 01:04:27 PM 28.0481 -77.6328 178° South 448 516 26,100 -1,050 Descending Miami Center
Thu 01:05:27 PM 27.9228 -77.6272 178° South 448 516 25,800 -950 Descending Miami Center
Thu 01:06:27 PM 27.7975 -77.6194 177° South 448 516 24,200 -1,800 Descending Miami Center
Thu 01:07:27 PM 27.6867 -77.6139 177° South 432 497 22,200 -2,000 Descending Miami Center
Thu 01:08:27 PM 27.5742 -77.6014 174° South 422 486 20,200 -1,600 Descending Miami Center
Thu 01:09:27 PM 27.4697 -77.6008 180° South 397 457 19,000 -400 Descending Miami Center
Thu 01:11:27 PM 27.2547 -77.5808 175° South 386 444 19,000  Level Miami Center
Thu 01:12:27 PM 27.1481 -77.5731 176° South 386 444 19,000  Level Miami Center
Thu 01:13:27 PM 27.0394 -77.5747 181° South 386 444 19,000  Level Miami Center
Thu 01:14:27 PM 26.9436 -77.5183 152° Southeast 377 434 19,000 -450 Level Miami Center
Thu 01:15:27 PM 26.8772 -77.4433 135° Southeast 377 434 18,100 -1,650 Descending Miami Center
Thu 01:16:27 PM 26.8083 -77.3847 143° Southeast 342 394 15,700 -2,700 Descending Miami Center
Thu 01:17:27 PM 26.7419 -77.3122 136° Southeast 328 377 12,700 -2,800 Descending Miami Center
Thu 01:18:27 PM 26.6794 -77.2539 140° Southeast 315 362 10,100 -2,600 Descending Miami Center
Thu 01:20:00 PM 26.5637 -77.1311 146° Southeast  Level FlightAware Approximate

Login

Don't have an account? Register now (free) for customized features, flight alerts, and more!